Hamilton, OH

8:26 PM EDT on March 25, 2017 (GMT -0400)
Butler County Regional

Weather History for KHAO - September, 2013

Change the Weather History Date:

Monday, September 9, 2013

  Actual Average (KLUK) Record (KLUK)
Temperature  
Mean Temperature 78 °F -  
Max Temperature 93 °F 82 °F 98 °F (1964)
Min Temperature 66 °F 61 °F 33 °F (1996)
Cooling Degree Days 14    
Growing Degree Days 28 (Base 50)    
Moisture  
Dew Point 67 °F    
Average Humidity 72    
Maximum Humidity 97    
Minimum Humidity 41    
Precipitation  
Precipitation 0.00 in - - ()
Sea Level Pressure  
Sea Level Pressure 30.01 in    
Wind  
Wind Speed 2 mph (South)    
Max Wind Speed 8 mph    
Max Gust Speed -    
Visibility 8 miles    
Events      
Averages and records for this station are not official NWS values.
T = Trace of Precipitation, MM = Missing Value Source: NWS Daily Summary

Daily Weather History Graph

Daily Weather History Graph

Search for Another Location

Airport or City:

Trip Planner

Search our weather history database for the weather conditions in past years. The results will help you decide how hot, cold, wet, or windy it might be!

Date:

Astronomy

Sep. 09, 2013 Rise Set
Actual Time 7:14 AM EDT 7:55 PM EDT
Civil Twilight 6:46 AM EDT 8:22 PM EDT
Nautical Twilight 6:14 AM EDT 8:54 PM EDT
Astronomical Twilight 5:41 AM EDT 9:27 PM EDT
Moon 11:33 AM EDT (9/9) 10:13 PM EDT (9/9)
Length of Visible Light 13h 35m
Length of Day
12h 41m
Waxing Crescent, 19% of the Moon is Illuminated
Sep 9
Waxing Crescent
Sep 12
First Quarter
Sep 19
Full
Sep 26
Last Quarter
Oct 4
New

Hourly Weather History & Observations

Time (EDT) Temp. Heat Index Dew Point Humidity Pressure Visibility Wind Dir Wind Speed Gust Speed Precip Events Conditions
12:53 AM 69.1 °F - 66.0 °F 90% 30.01 in 10.0 mi Calm Calm - N/A   Clear
1:53 AM 68.0 °F - 64.9 °F 90% 30.02 in 9.0 mi Calm Calm - N/A   Clear
2:53 AM 66.9 °F - 64.9 °F 93% 30.01 in 8.0 mi Calm Calm - N/A   Clear
3:53 AM 66.9 °F - 64.9 °F 93% 30.01 in 6.0 mi Calm Calm - N/A   Clear
4:53 AM 66.9 °F - 64.9 °F 93% 30.01 in 5.0 mi Calm Calm - N/A   Clear
5:53 AM 66.0 °F - 64.0 °F 93% 30.01 in 4.0 mi Calm Calm - N/A   Scattered Clouds
6:25 AM 66.2 °F - 64.4 °F 94% 30.03 in 1.8 mi Calm Calm - N/A   Clear
6:35 AM 66.2 °F - 64.4 °F 94% 30.02 in 3.0 mi Calm Calm - N/A   Clear
6:53 AM 66.9 °F - 66.0 °F 97% 30.01 in 3.0 mi Calm Calm - N/A   Clear
7:25 AM 68.0 °F - 66.2 °F 94% 30.03 in 2.5 mi ESE 3.5 mph - N/A   Clear
7:53 AM 69.1 °F - 66.9 °F 93% 30.03 in 3.0 mi Calm Calm - N/A   Clear
8:53 AM 73.9 °F - 69.1 °F 85% 30.04 in 4.0 mi Calm Calm - N/A   Haze
9:53 AM 78.1 °F - 70.0 °F 76% 30.04 in 7.0 mi East 4.6 mph - N/A   Clear
10:53 AM 82.9 °F 86.5 °F 69.1 °F 63% 30.04 in 10.0 mi South 3.5 mph - N/A   Clear
11:53 AM 86.0 °F 90.1 °F 69.1 °F 57% 30.04 in 10.0 mi South 6.9 mph - N/A   Partly Cloudy
12:53 PM 90.0 °F 93.6 °F 68.0 °F 48% 30.03 in 10.0 mi South 5.8 mph - N/A   Partly Cloudy
1:53 PM 91.0 °F 93.8 °F 66.0 °F 44% 30.02 in 10.0 mi South 8.1 mph - N/A   Clear
2:53 PM 91.9 °F 94.1 °F 64.9 °F 41% 30.00 in 10.0 mi SW 8.1 mph - N/A   Clear
3:53 PM 91.9 °F 94.1 °F 64.9 °F 41% 29.98 in 10.0 mi SSW 8.1 mph - N/A   Clear
4:53 PM 91.9 °F 95.4 °F 66.9 °F 44% 29.96 in 10.0 mi SSW 8.1 mph - N/A   Clear
5:53 PM 91.0 °F 94.3 °F 66.9 °F 45% 29.96 in 10.0 mi Variable 6.9 mph - N/A   Clear
6:53 PM 88.0 °F 90.7 °F 66.9 °F 49% 29.96 in 10.0 mi SSW 5.8 mph - N/A   Clear
7:53 PM 82.9 °F 86.5 °F 69.1 °F 63% 29.98 in 10.0 mi SSW 4.6 mph - N/A   Clear
8:53 PM 82.0 °F 85.5 °F 69.1 °F 65% 29.99 in 10.0 mi South 4.6 mph - N/A   Clear
9:53 PM 81.0 °F 84.1 °F 69.1 °F 67% 30.01 in 10.0 mi South 3.5 mph - N/A   Clear
10:53 PM 79.0 °F - 69.1 °F 72% 30.02 in 10.0 mi Calm Calm - N/A   Clear
11:53 PM 80.1 °F 82.9 °F 69.1 °F 69% 30.03 in 10.0 mi Calm Calm - N/A   Mostly Cloudy